DW0831 Weather Reports


Display with metric or nautical units.
time (UTC)temp
F
wind
direction
speed
MPH
gust
MPH
rain 1hr
in
rain 24hr
in
rain mn
in
humidity
%
barometer
mb
20190419064628 47 355 1.0 4.0 0.00 0.27 0.00 80 1005.6
20190419063140 47 355 0.0 2.0 0.00 0.27 0.00 80 1005.7
20190419061618 47 355 0.0 3.0 0.00 0.27 0.00 79 1005.7
20190419060132 48 355 2.0 5.0 0.00 0.27 0.00 78 1005.6
20190419054757 48 355 3.0 6.0 0.00 0.27 0.00 77 1005.3
20190419053152 48 355 2.0 5.0 0.00 0.27 0.00 77 1005.1
20190419051629 49 355 2.0 6.0 0.00 0.27 0.00 77 1005.0
20190419050141 49 355 2.0 7.0 0.00 0.27 0.00 76 1004.8
20190419044650 49 355 1.0 6.0 0.00 0.27 0.27 75 1004.6
20190419043054 49 355 3.0 7.0 0.00 0.27 0.27 75 1004.6
20190419041629 49 355 3.0 6.0 0.00 0.27 0.27 75 1004.4
20190419040049 50 355 3.0 6.0 0.00 0.27 0.27 74 1004.4
20190419034640 50 355 1.0 6.0 0.00 0.28 0.27 73 1004.5
20190419033047 50 355 3.0 7.0 0.00 0.28 0.27 73 1004.5
20190419031558 51 355 2.0 7.0 0.00 0.28 0.27 72 1004.3
20190419030044 51 355 4.0 8.0 0.00 0.28 0.27 71 1004.3
20190419024620 52 355 3.0 8.0 0.00 0.28 0.27 70 1004.3
20190419023050 53 351 3.0 9.0 0.00 0.28 0.27 68 1004.3
20190419021538 53 5 3.0 11.0 0.00 0.28 0.27 67 1004.0
20190419020141 54 14 5.0 9.0 0.00 0.28 0.27 66 1003.7
20190419014545 54 16 4.0 13.0 0.00 0.35 0.27 65 1003.4
20190419013037 55 11 3.0 11.0 0.00 0.35 0.27 64 1003.1
20190419011556 55 5 5.0 10.0 0.00 0.35 0.27 61 1003.0
20190419010038 56 5 8.0 14.0 0.00 0.35 0.27 60 1002.7
20190419004534 57 355 6.0 13.0 0.00 0.39 0.27 60 1002.6
20190419003024 57 348 9.0 18.0 0.00 0.39 0.27 58 1002.6
20190419001529 58 13 4.0 18.0 0.00 0.39 0.27 59 1002.6
20190419000027 58 24 9.0 17.0 0.00 0.39 0.27 57 1002.5
20190418234543 58 355 11.0 17.0 0.00 0.39 0.27 59 1002.2
20190418233116 58 351 8.0 18.0 0.00 0.39 0.27 61 1002.1
20190418231531 59 338 8.0 17.0 0.00 0.39 0.27 60 1002.0
20190418230018 59 10 6.0 16.0 0.00 0.39 0.27 63 1001.9
20190418224516 58 355 6.0 11.0 0.00 0.39 0.27 64 1001.8
20190418223033 58 346 9.0 17.0 0.00 0.39 0.27 64 1001.8
20190418221550 58 355 6.0 14.0 0.00 0.39 0.27 65 1001.5
20190418220016 57 22 7.0 15.0 0.00 0.39 0.27 68 1001.8
20190418214527 57 30 5.0 14.0 0.00 0.39 0.27 68 1001.8
20190418213026 57 348 6.0 18.0 0.00 0.39 0.27 68 1001.9
20190418211524 57 10 8.0 17.0 0.00 0.39 0.27 68 1002.2
20190418210032 56 342 9.0 18.0 0.00 0.39 0.27 69 1002.3
20190418204524 56 337 9.0 18.0 0.00 0.39 0.27 69 1002.3
20190418203012 56 17 9.0 16.0 0.00 0.39 0.27 71 1002.3
20190418201511 56 355 7.0 15.0 0.00 0.39 0.27 72 1002.4
20190418200029 56 24 11.0 19.0 0.00 0.39 0.27 70 1002.3
20190418194507 57 331 10.0 23.0 0.00 0.39 0.27 72 1001.9
20190418193013 56 360 10.0 20.0 0.00 0.39 0.27 73 1001.6
20190418191518 56 355 8.0 21.0 0.00 0.39 0.27 74 1001.4
20190418190004 55 10 11.0 21.0 0.00 0.39 0.27 75 1002.2
20190418184506 55 339 8.0 17.0 0.00 0.39 0.27 78 1002.2
20190418183148 54 338 9.0 16.0 0.00 0.39 0.27 78 1002.2
20190418181648 54 340 7.0 16.0 0.00 0.39 0.27 80 1001.9
20190418180124 53 342 9.0 19.0 0.00 0.39 0.27 81 1002.1
20190418174734 53 323 10.0 16.0 0.00 0.39 0.27 84 1002.2
20190418173256 52 17 6.0 13.0 0.00 0.39 0.27 85 1002.1
20190418171710 52 347 6.0 16.0 0.00 0.39 0.27 87 1002.1
20190418170212 52 351 9.0 17.0 0.00 0.39 0.27 88 1002.1
20190418164701 51 9 9.0 16.0 0.00 0.39 0.27 89 1002.1
20190418163145 51 332 11.0 19.0 0.00 0.39 0.27 89 1001.9
20190418161741 51 338 7.0 19.0 0.00 0.39 0.27 88 1001.7
20190418160119 51 344 7.0 14.0 0.00 0.39 0.27 88 1002.1
20190418154640 51 338 6.0 15.0 0.00 0.39 0.27 88 1002.1
20190418153145 51 347 8.0 15.0 0.01 0.39 0.27 89 1001.8
20190418151645 51 12 10.0 18.0 0.01 0.39 0.27 88 1001.4
20190418150116 51 340 10.0 18.0 0.02 0.39 0.27 88 1001.2
20190418144712 51 355 9.0 21.0 0.02 0.39 0.27 88 1001.0
20190418143057 52 341 11.0 25.0 0.01 0.38 0.26 88 1000.6
20190418141612 56 321 8.0 18.0 0.00 0.37 0.25 88 1000.4
20190418140101 56 355 5.0 14.0 0.00 0.37 0.25 88 1000.3
20190418134612 57 342 9.0 13.0 0.00 0.37 0.25 88 999.8
20190418133034 57 344 5.0 13.0 0.00 0.37 0.25 87 999.7
20190418131550 57 339 7.0 12.0 0.00 0.37 0.25 87 999.8
20190418130128 57 346 6.0 13.0 0.00 0.37 0.25 87 1000.0
20190418124539 57 344 7.0 12.0 0.00 0.37 0.25 87 999.9
20190418123045 57 346 6.0 10.0 0.00 0.37 0.25 88 999.8
20190418121543 58 342 6.0 11.0 0.00 0.37 0.25 88 1000.2
20190418120054 57 310 3.0 8.0 0.00 0.37 0.25 88 1000.3
20190418114521 57 309 3.0 10.0 0.00 0.37 0.25 88 1000.2
20190418113054 57 295 4.0 9.0 0.00 0.37 0.25 88 999.7
20190418111513 57 294 3.0 8.0 0.00 0.37 0.25 88 998.8
20190418110038 58 294 4.0 9.0 0.00 0.37 0.25 87 998.3
20190418104516 58 294 0.0 0.0 0.00 0.37 0.25 87 997.0
20190418103028 58 294 0.0 4.0 0.00 0.37 0.25 87 996.5
20190418101522 58 294 0.0 3.0 0.00 0.37 0.25 87 997.0
20190418100034 58 294 0.0 0.0 0.00 0.37 0.25 87 996.5
20190418094520 58 294 0.0 4.0 0.00 0.37 0.25 88 996.1
20190418093019 58 294 0.0 2.0 0.00 0.37 0.25 88 997.3
20190418090018 59 294 0.0 0.0 0.00 0.37 0.25 88 996.8
20190418084511 59 294 0.0 1.0 0.00 0.37 0.25 88 997.4
20190418083301 59 294 0.0 3.0 0.00 0.37 0.25 88 997.9
20190418081637 59 294 1.0 3.0 0.00 0.37 0.25 88 997.6
20190418080138 60 294 0.0 2.0 0.00 0.37 0.25 88 996.7
20190418074716 60 294 0.0 5.0 0.00 0.37 0.25 88 996.6
20190418073152 60 294 0.0 5.0 0.01 0.37 0.25 88 997.9
20190418071650 61 294 0.0 6.0 0.24 0.37 0.25 88 998.6
20190418070243 61 294 0.0 6.0 0.25 0.37 0.25 87 998.8